Terminal Aerodrome Forecast
Issued by NWS Duluth, MN

Home | Current Version | Previous Version | Text Only | Print | Product List | Glossary On
Versions: 1 2 3 4 5 6 7 8 9 10 11 12 13 14 15 16 17 18 19 20 21 22 23 24 25 26 27 28 29 30 31 32 33 34 35 36 37 38 39 40 41 42 43 44
000
FTUS43 KDLH 232320
TAFDLH
TAF
KDLH 232320Z 2400/2424 12009KT P6SM FEW050 SCT200
     FM240500 VRB04KT P6SM BKN120
     FM241000 21006KT P6SM BKN070 WS020/23040KT
     FM241400 22010KT P6SM BKN060
     FM241700 22012G21KT P6SM SCT070=

USA.gov is the U.S. government's official web portal to all federal, state and local government web resources and services.